Date,TemperatureHighF,TemperatureAvgF,TemperatureLowF,DewpointHighF,DewpointAvgF,DewpointLowF,HumidityHigh,HumidityAvg,HumidityLow,PressureMaxIn,PressureMinIn,WindSpeedMaxMPH,WindSpeedAvgMPH,GustSpeedMaxMPH,PrecipitationSumIn
2013-12-1,49.2,45.3,42.0,42.0,35.8,26.0,86,70,45,30.34,30.02,7,1,9,0.00
2013-12-2,47.4,44.8,41.1,47.0,41.9,32.0,100,90,58,30.02,29.82,3,0,6,0.00
2013-12-3,52.7,49.3,47.4,52.0,49.1,47.0,100,99,96,29.91,29.84,5,1,7,0.00
2013-12-4,62.2,57.3,51.0,60.0,56.9,50.0,100,98,91,30.01,29.90,8,1,9,0.01
2013-12-5,64.3,62.3,59.7,64.0,62.4,60.0,100,100,100,30.05,29.94,11,3,17,0.01
2013-12-6,66.1,63.2,56.3,65.0,62.7,56.0,100,98,93,30.00,29.89,15,5,21,0.00
2013-12-7,52.5,45.3,39.7,51.0,44.5,39.0,100,97,84,30.26,29.97,7,1,15,0.00
2013-12-8,45.2,41.3,38.6,45.0,41.0,38.0,100,99,97,30.25,30.14,12,5,20,0.00
2013-12-9,52.9,48.2,41.8,52.0,48.0,41.0,100,99,93,30.16,29.99,8,2,15,0.00
2013-12-10,52.9,39.7,31.2,53.0,34.9,13.0,100,84,40,30.30,29.94,16,5,23,0.00
2013-12-11,47.8,39.1,30.7,24.0,16.8,7.0,63,41,27,30.46,30.29,12,2,15,0.01
2013-12-12,39.7,34.6,29.7,21.0,10.2,-1.0,59,38,19,30.44,30.32,10,3,21,0.03
2013-12-13,49.0,41.5,36.5,23.0,13.1,4.0,49,32,23,30.39,30.17,4,1,9,0.03
2013-12-14,50.0,44.9,39.1,50.0,41.3,24.0,100,89,51,30.19,29.83,6,2,13,0.01
2013-12-15,46.0,32.4,26.5,46.0,31.4,26.0,100,96,90,30.20,29.82,12,5,24,0.01
2013-12-16,45.1,40.5,30.5,31.0,28.1,24.0,89,62,51,30.28,30.19,8,3,14,0.01
2013-12-17,51.6,44.3,38.8,36.0,32.4,26.0,70,63,54,30.23,30.09,16,6,29,0.01
2013-12-18,46.2,38.6,30.5,27.0,16.0,2.0,67,43,17,30.32,30.16,14,3,21,0.01
2013-12-19,57.5,49.9,44.5,28.0,12.1,-10.0,47,24,9,30.34,30.18,7,1,13,0.00
2013-12-20,56.6,52.4,47.2,52.0,40.4,27.0,91,66,44,30.21,30.10,5,1,11,0.00
2013-12-21,62.8,58.9,54.6,63.0,58.2,52.0,100,97,91,30.10,29.90,8,2,16,0.01
2013-12-22,63.3,56.3,51.6,63.0,56.2,52.0,100,99,97,30.04,29.85,11,2,19,0.01
2013-12-23,51.5,42.7,30.1,52.0,41.9,28.0,100,97,91,30.21,29.99,8,3,15,0.01
2013-12-24,36.2,28.7,24.3,28.0,20.7,13.0,92,72,50,30.41,30.20,11,3,17,0.00
2013-12-25,38.5,30.6,24.7,29.0,19.5,15.0,82,64,51,30.48,30.38,7,1,10,0.58
2013-12-26,47.0,38.6,32.1,31.0,26.1,14.0,85,63,37,30.39,30.30,8,1,11,0.04
2013-12-27,47.6,40.3,34.5,27.0,22.9,10.0,65,51,32,30.46,30.33,6,1,9,0.02
2013-12-28,44.7,40.7,35.6,37.0,28.4,22.0,97,64,44,30.41,29.95,12,3,23,0.01
2013-12-29,44.0,40.3,37.5,44.0,39.8,37.0,100,98,90,30.05,29.85,12,4,17,0.01
2013-12-30,43.5,38.9,35.1,39.0,37.2,33.0,99,93,84,30.19,30.04,16,4,20,0.00
2013-12-31,41.2,35.1,29.5,34.0,23.9,13.0,99,67,36,30.37,30.17,10,2,20,0.01